Regional Weather Roundup
Issued by NWS Grand Forks, ND

Home | Current Version | Previous Version | Graphics & Text | Print | Product List | Glossary On
Versions: 1 2 3 4 5 6 7 8 9 10 11 12 13 14 15 16 17 18 19 20 21 22 23 24 25 26 27 28 29 30 31 32 33 34 35 36 37 38 39 40 41 42 43 44 45 46 47 48 49 50
654
ASUS43 KFGF 111331
RWRFGF
PRAIRIE TO PINES  WEATHER ROUNDUP
NATIONAL WEATHER SERVICE EASTERN NORTH DAKOTA/GRAND FORKS ND
700 AM CST THU FEB 11 2016

 **SATELLITE DATA USED TO AUGMENT SKY COVER AT AUTOMATED STATIONS**
 *****  WEATHER ACROSS EASTERN NORTH DAKOTA  *****

CITY           SKY/WX    TMP DP  RH WIND       PRES   REMARKS
GRAND FORKS    CLOUDY     6  -1  73 SE6       30.26F WCI  -4
GRAND FRKS AFB CLOUDY     5   0  78 SE6       30.25F WCI  -6
DEVILS LAKE    FLURRIES   7   3  84 CALM      30.19S
FARGO          CLOUDY     7  -1  70 E3        30.27F
WAHPETON ARPT  CLOUDY     3   0  85 CALM      30.28S
$$

 ***** WEATHER ACROSS CENTRAL AND WESTERN NORTH DAKOTA  *****

CITY           SKY/WX    TMP DP  RH WIND       PRES   REMARKS
BISMARCK       LGT SNOW  19  14  81 SE6       30.13F WCI  11
MINOT          CLOUDY    14   7  73 E3        30.13S
JAMESTOWN      CLOUDY     7   2  80 SE8       30.17S WCI  -6
MINOT AFB      CLOUDY    11  10  92 SE5       30.13S WCI   3
GARRISON         N/A     15  12  88 SE5       30.10S WCI   8
WILLISTON      LGT SNOW  23  20  88 NE6       30.07S FOG     WCI  16
DICKINSON      LGT SNOW  24  22  91 E8        29.98F VSB 3/4 WCI  15
HETTINGER      LGT SNOW  29  27  92 S7        30.00R FOG     WCI  22
$$

 *****  OTHER AIRPORT OBSERVATIONS IN OUR AREA  *****

CITY           SKY/WX    TMP DP  RH WIND       PRES   REMARKS
WALHALLA         N/A      5   3  92 CALM      30.24F
GRAFTON AIRPOR CLOUDY     5   1  85 S6        30.28F WCI  -6
VALLEY CITY AR CLOUDY     3   1  92 SE3       30.22F
CANDO          CLOUDY     7   5  92 CALM      30.20S
CAVALIER APRT  FAIR       5   1  85 S6        30.26S WCI  -6
GWINNER        CLOUDY    10   5  79 E5        30.23F WCI   2
SHEYENNE NWR     N/A      2  -3  81 CALM      29.95S
ROLLA          FLURRIES   7   3  85 CALM      30.15S
 ***** THE ABOVE OBSERVATIONS ARE NON NWS ARE NOT QUALITY
       CONTROLLED AND MAY MIS-REPORT RAIN FOR SNOW...
$$

  *****  WEATHER ACROSS NORTHERN MINNESOTA  *****

CITY           SKY/WX    TMP DP  RH WIND       PRES   REMARKS
FLAG ISLAND    CLOUDY    -6 -11  77 S3        30.21F
WARROAD        CLOUDY    -8 -13  77 SW5       30.24S WCI -19
ROSEAU         CLOUDY    -9 -15  77 CALM      30.24F
HALLOCK        CLOUDY     1  -2  85 S6        30.26F WCI -10
THF RVR FALLS  CLOUDY    -2  -4  92 S5        30.26S WCI -12
BAUDETTE       CLOUDY    -8 -15  71 SW3       30.21F
WASKISH        CLOUDY   -11 -17  77 CALM      30.24R
CROOKSTON      CLOUDY     1  -2  85 SE3       30.28F
STEPHEN NDAWN    N/A      1  -6  71 S3          N/A
GREENBUSH NDAW   N/A     -4  -8  84 S6          N/A  WCI -16
$$
  *****  WEATHER ACROSS CENTRAL AND WEST MINNESOTA  *****

CITY           SKY/WX    TMP DP  RH WIND       PRES   REMARKS
FOSSTON        CLOUDY   -17 -22  76 SE3       30.24F
BEMIDJI        CLOUDY   -18 -22  78 CALM      30.22F
PARK RAPIDS    CLOUDY   -16 -22  74 CALM      30.23S
ELBOW LAKE     CLOUDY     4   1  89 E5        30.26F WCI  -6
WADENA         CLOUDY    -8 -11  84 CALM      30.24F
DETROIT LAKES  CLOUDY    -4  -8  84 CALM      30.24F
MOORHEAD       CLOUDY     3  -2  78 CALM      30.28S
FERGUS FALLS   CLOUDY     5   1  85 CALM      30.29F
MORRIS MN      CLOUDY     3   0  85 CALM      30.26S
STAPLES        PTCLDY   -11 -15  84 CALM      30.26S
$$
  *****  WEATHER ELSEWHERE ACROSS MINNESOTA  *****

CITY           SKY/WX    TMP DP  RH WIND       PRES   REMARKS
DULUTH         CLOUDY   -10 -15  78 SW6       30.21R WCI -23
INTRNTL FALLS  CLOUDY    -9 -13  83 CALM      30.22F
ELY            CLOUDY   -15 -20  76 CALM      30.20F
CLOQUET        CLOUDY   -15 -20  76 W3        30.23F
WHEATON        CLOUDY     7   3  85 CALM      30.29F
BRAINERD       CLOUDY   -15 -20  78 CALM      30.27S
HIBBING        CLOUDY   -20 -25  77 CALM      30.23S
ALEXANDRIA     CLOUDY     2  -5  72 S3        30.25S
SAINT CLOUD    CLOUDY    -4 -10  75 CALM      30.31R
MINNEAPOLIS    CLOUDY     4  -6  63 CALM      30.33R
$$

  *****  WEATHER ACROSS SOUTH DAKOTA  *****

CITY           SKY/WX    TMP DP  RH WIND       PRES   REMARKS
SIOUX FALLS    CLOUDY    13   5  70 S7        30.24F WCI   3
BROOKINGS      CLOUDY    12   7  80 S8        30.22S WCI   0
WATERTOWN      CLOUDY    12   6  77 S7        30.20R WCI   1
HURON          CLOUDY    17  12  80 S8        30.22F WCI   7
SISSETON         N/A      8   3  80 S3        30.25S
ABERDEEN       CLOUDY    15   9  76 CALM      30.21F
MITCHELL       CLOUDY    18  13  80 S8        30.25R WCI   8
PIERRE         CLOUDY    22  20  92 SE10      30.12F WCI  11
MOBRIDGE       LGT SNOW  20  17  88 SE10      30.09F FOG     WCI   9
RAPID CITY     FOG       27  27 100 E8        29.97F VSB 1/4 WCI  19
$$

  *****  SOME WEATHER IN NEARBY STATES *****

CITY           SKY/WX    TMP DP  RH WIND       PRES   REMARKS
GLASGOW MT     CLOUDY    29  25  85 E9        30.01R WCI  20
GREAT FALLS MT MOCLDY    35  23  61 SW5       30.11S
CHEYENNE WY    CLOUDY    44  15  31 W10       30.12F
SCOTTSBLUFF NE CLOUDY    33  24  69 N3        30.07F
OMAHA NE       CLOUDY    14   2  58 CALM      30.32R
DES MOINES IA  CLOUDY     7  -2  66 NE9       30.32R WCI  -7
DAVENPORT IA   CLEAR      5  -1  76 N3        30.32R
CHICAGO IL     PTCLDY     7  -2  66 W8        30.27R WCI  -6
EAU CLAIRE WI  CLOUDY    -9 -14  78 W3        30.30R
LA CROSSE WI   CLOUDY    -5  -9  83 CALM      30.34R
$$

  *****  SOME NATIONAL WEATHER *****

CITY           SKY/WX    TMP DP  RH WIND       PRES   REMARKS
LA GUARDIA NY  MOSUNNY   24   4  42 W13G26    29.89R WCI  12
RALEIGH NC     CLEAR     21   7  54 CALM      30.18R
ATLANTA GA     PTCLDY    29  17  61 CALM      30.18R
NEW ORLEANS LA PTCLDY    48  42  80 S8        30.21S
OKLAHOMA CITY  PTCLDY    41  31  67 N8        30.12R
ALBUQUERQUE NM CLEAR     38  21  50 N7        30.34R
SALT LAKE CITY FOG       29  27  92 N3        30.47R VSB 1/2
LOS ANGELES CA PTCLDY    58  35  42 E3        30.07S
BOISE ID       MOCLDY    32  30  92 W3        30.41R
SEATTLE WA     CLOUDY    47  45  93 N3        30.22S
$$

*** WEATHER ACROSS MANITOBA...SASKATCHEWAN AND ONTARIO ***
                ***ONTARIO***

CITY           SKY/WX    TMP DP  RH WIND       PRES   REMARKS
GERALDTON      PTCLDY   -20 -24  83 W5        30.06S WCI -33
THUNDER BAY    PTCLDY   -24 -29  76 SW6       30.22S WCI -40
SIOUX LOOKOUT  FLURRIES  -6  -9  84 VRB2      30.13F
TORONTO        PTCLDY     3  -6  66 N12       29.98R WCI -13
BIG TROUT LK   FLURRIES -22 -27  76 W9        29.98F WCI -42
PICKLE LAKE    CRYSTALS -15 -20  76 W9        30.02F WCI -33
DRYDEN         CLOUDY    -6  -9  84 SW8       30.14F WCI -21
KENORA         CLOUDY    -6  -9  84 SW3       30.17F
$$
                *** MANITOBA***

CITY           SKY/WX    TMP DP  RH WIND       PRES   REMARKS
BRANDON        FLURRIES   3   0  85 NW5       30.19S WCI  -6
DAUPHIN        FLURRIES   5   1  85 N5        30.26R WCI  -4
ISLAND LAKE    CLEAR    -20 -26  76 W10       30.12F WCI -41
PILOT MOUND      N/A      5   3  92 W3          N/A
THE PAS        CLEAR    -13 -18  77 NW9       30.29S WCI -31
THOMPSON       PTCLDY   -20 -27  69 NW7       30.18S WCI -37
WINNIPEG       MOCLDY     0  -6  78 S5        30.25F WCI -10
LYNN LAKE      CLEAR    -22 -27  76 W9        30.21S WCI -42
CHURCHILL      CRYSTALS -26 -33  68 N24G35    30.11R VSB 1   WCI -58
GILLAM         PTCLDY   -26 -33  68 NW9       30.10F WCI -47
$$
                ***SASKATCHEWAN***

CITY           SKY/WX    TMP DP  RH WIND       PRES   REMARKS
ESTEVAN        FLURRIES  14  10  85 E9        30.12R WCI   2
KINDERSLEY     FLURRIES  16  14  93 E13       30.11R WCI   2
LLOYDMINSTER   FLURRIES  12   9  85 E10       30.16R WCI  -1
PRINCE ALBERT  FLURRIES   5   1  85 SE3       30.27S
REGINA         FLURRIES  14  10  85 E5        30.14R WCI   6
YORKTON        FLURRIES   5   3  92 N9        30.19R WCI  -9
N. BATTLEFORD  LGT SNOW   9   7  92 E10       30.24R WCI  -6
LA RONGE       CLEAR    -15 -18  84 VRB2      30.32S
SASKATOON      FLURRIES   9   7  92 E9        30.23R WCI  -5
SWIFT CURRENT  LGT SNOW  18  18 100 E14       30.03R WCI   4
$$
NOTE: THESE ARE AUTOMATED STATIONS WITH LIMITED QUALITY CONTROL
      "FAIR" INDICATES FEW OR NO CLOUDS BELOW 12,000 FEET WITH NO
      SIGNIFICANT WEATHER AND/OR OBSTRUCTIONS TO VISIBILITY.
      SKY/WX - SKY CONDITION AND SIGNIFICANT WEATHER.
      TMP - AIR TEMPERATURE.    DP   - DEWPOINT TEMPERATURE.
      RH  - RELATIVE HUMIDITY.  PRES - PRESSURE.
      HX  - HEAT INDEX.         WCI  - WIND CHILL INDEX.
$




USA.gov is the U.S. government's official web portal to all federal, state and local government web resources and services.